Weather History for Key West, FL

Change the Weather History Date:

Friday, November 19, 2010

  Actual Average Record
Temperature  
Mean Temperature 74 °F 75 °F  
Max Temperature 78 °F 79 °F 87 °F (1947)
Min Temperature 69 °F 71 °F 57 °F (1951)
Degree Days  
Heating Degree Days 0 0  
Month to date heating degree days 0 0  
Since 1 July heating degree days 0 0  
Cooling Degree Days 9 10  
Month to date cooling degree days 168 220  
Year to date cooling degree days 4236 4428  
Growing Degree Days 23 (Base 50)    
Moisture  
Dew Point 62 °F    
Average Humidity 67    
Maximum Humidity 79    
Minimum Humidity 54    
Precipitation  
Precipitation 0.00 in 0.06 in 1.94 in (1911)
Month to date precipitation 1.99 1.52  
Year to date precipitation 37.81 36.83  
Snow  
Snow 0.00 in - - ()
Month to date snowfall 0.0  
Since 1 July snowfall 0.0  
Since 1 September snowfall 0.0  
Snow Depth 0.00 in    
Sea Level Pressure  
Sea Level Pressure 30.11 in    
Wind  
Wind Speed 11 mph (NE)    
Max Wind Speed 20 mph    
Max Gust Speed 25 mph    
Visibility 10 miles    
Events      
T = Trace of Precipitation, MM = Missing Value Source: NWS Daily Summary

Daily Weather History Graph

Daily Weather History Graph

Search for Another Location

Airport:

Trip Planner

Search our weather history database for the weather conditions in past years. The results will help you decide how hot, cold, wet, or windy it might be!

Date:

Astronomy

Nov. 19, 2010 Rise Set
Actual Time 6:45 AM EST 5:38 PM EST
Civil Twilight 6:21 AM EST 6:03 PM EST
Nautical Twilight 5:53 AM EST 6:30 PM EST
Astronomical Twilight 5:26 AM EST 6:58 PM EST
Moon 4:06 PM EST (11/19) 4:46 AM EST (11/19)
Length of Visible Light 11h 41m
Length of Day
10h 53m
Waxing Gibbous, 96% of the Moon is Illuminated
Nov 19
Waxing Gibbous
Nov 21
Full
Nov 28
Last Quarter
Dec 5
New
Dec 13
First Quarter

Hourly Weather History & Observations

Time (EST) Temp. Dew Point Humidity Pressure Visibility Wind Dir Wind Speed Gust Speed Precip Events Conditions
12:53 AM 73.0 °F 64.0 °F 73% 30.08 in 10.0 mi NNE 16.1 mph 21.9 mph N/A   Clear
1:53 AM 72.0 °F 64.9 °F 78% 30.07 in 10.0 mi NNE 12.7 mph 23.0 mph N/A   Clear
2:53 AM 71.1 °F 64.9 °F 81% 30.06 in 10.0 mi NNE 13.8 mph 21.9 mph N/A   Clear
3:53 AM 70.0 °F 63.0 °F 78% 30.06 in 10.0 mi NNE 12.7 mph 24.2 mph N/A   Clear
4:53 AM 70.0 °F 61.0 °F 73% 30.06 in 10.0 mi NNE 11.5 mph 21.9 mph N/A   Clear
5:53 AM 70.0 °F 60.1 °F 71% 30.07 in 10.0 mi NNE 11.5 mph 20.7 mph N/A   Clear
6:53 AM 69.1 °F 62.1 °F 78% 30.10 in 10.0 mi NNE 10.4 mph 20.7 mph N/A   Clear
7:53 AM 71.1 °F 62.1 °F 73% 30.12 in 10.0 mi NE 13.8 mph 21.9 mph N/A   Partly Cloudy
8:53 AM 73.0 °F 63.0 °F 71% 30.14 in 10.0 mi NNE 12.7 mph 21.9 mph N/A   Clear
9:53 AM 73.0 °F 62.1 °F 68% 30.16 in 10.0 mi NNE 13.8 mph 20.7 mph N/A   Partly Cloudy
10:53 AM 75.0 °F 62.1 °F 64% 30.16 in 10.0 mi NE 15.0 mph 23.0 mph N/A   Partly Cloudy
11:53 AM 75.9 °F 62.1 °F 62% 30.14 in 10.0 mi NE 12.7 mph 25.3 mph N/A   Partly Cloudy
12:53 PM 75.9 °F 62.1 °F 62% 30.12 in 10.0 mi NE 12.7 mph 21.9 mph N/A   Clear
1:53 PM 77.0 °F 62.1 °F 60% 30.10 in 10.0 mi NE 10.4 mph 23.0 mph N/A   Clear
2:53 PM 77.0 °F 60.1 °F 56% 30.09 in 10.0 mi ENE 10.4 mph 20.7 mph N/A   Clear
3:53 PM 77.0 °F 60.1 °F 56% 30.09 in 10.0 mi ENE 11.5 mph 21.9 mph N/A   Clear
4:53 PM 75.0 °F 57.9 °F 55% 30.10 in 10.0 mi ENE 9.2 mph 19.6 mph N/A   Clear
5:53 PM 73.9 °F 59.0 °F 59% 30.11 in 10.0 mi NE 9.2 mph 16.1 mph N/A   Clear
6:53 PM 73.0 °F 60.1 °F 64% 30.12 in 10.0 mi NE 8.1 mph - N/A   Clear
7:53 PM 73.0 °F 61.0 °F 66% 30.14 in 10.0 mi ENE 8.1 mph - N/A   Clear
8:53 PM 73.0 °F 61.0 °F 66% 30.16 in 10.0 mi NE 6.9 mph - N/A   Clear
9:53 PM 72.0 °F 62.1 °F 71% 30.17 in 10.0 mi NE 8.1 mph - N/A   Clear
10:53 PM 72.0 °F 63.0 °F 73% 30.17 in 10.0 mi NE 11.5 mph 16.1 mph N/A   Clear
11:53 PM 72.0 °F 64.0 °F 76% 30.17 in 10.0 mi NE 9.2 mph - N/A   Partly Cloudy